Vertical_Velocity
-5 -1 -0 -0 1 5 4 1 0 -2 -3 -1 -2 3 5 4 5 2 -2 -1 -3 26
-6 -6 -1 2 2 0 0 -1 -2 -0 -1 2 1 -1 5 4 1 2 3 9 -2 24
-4 -9 -5 -4 -2 -1 -2 -1 -2 -3 2 -0 -1 -1 -1 1 9 2 -1 -2 8 12
-3 -8 -7 -3 -4 -2 -1 -3 -4 -4 2 5 1 0 1 0 4 7 5 -1 3 6
-1 -1 -4 -4 -3 -3 -3 -1 -1 1 -2 -1 -1 0 0 1 0 2 -1 -2 -3 -3
-2 -2 -2 -1 -3 -2 -0 -0 -1 -2 -1 1 -0 -1 0 14 3 -2 -5 0 -1 -5
-0 -1 -1 -2 -3 -3 -3 -0 -2 0 1 0 -0 -1 -7 -4 -3 27 10 6 1 -1
-1 -0 1 1 1 0 -1 -1 2 1 0 1 2 2 0 2 2 10 -2 5 10 5
1 3 1 -2 -1 -1 3 1 3 4 5 -0 1 2 2 0 -4 -0 1 -2 -3 -6
-4 -0 3 3 4 2 -2 1 2 -0 -0 4 1 -1 1 -2 -2 -1 1 3 2 2
-1 -2 -3 -3 -1 1 1 1 -1 -0 1 -0 3 11 8 8 4 5 5 4 4 3
-2 -0 1 1 -2 0 0 0 2 -0 -2 -0 1 1 1 0 -0 -1 -2 -5 -3 -1
-2 0 -1 -2 -0 1 0 0 1 1 3 3 1 0 -0 0 2 2 3 1 1 -1
-2 -2 -2 -1 -2 -3 -2 1 1 2 1 0 2 3 3 1 3 1 3 1 3 1
Height
5633 5624 5620 5617 5617 5617 5618 5619 5621 5622 5624 5628 5633 5641 5650 5658 5664 5670 5675 5682 5683 5684
5625 5616 5607 5604 5602 5603 5604 5606 5606 5605 5608 5611 5617 5623 5629 5637 5648 5655 5661 5668 5671 5665
5618 5610 5600 5594 5591 5591 5592 5592 5592 5592 5594 5597 5604 5609 5613 5619 5628 5636 5643 5650 5653 5653
5613 5605 5596 5589 5585 5580 5580 5583 5584 5583 5585 5589 5593 5596 5599 5604 5611 5618 5624 5631 5636 5636
5611 5603 5595 5588 5582 5578 5576 5576 5576 5577 5579 5581 5583 5585 5587 5592 5598 5604 5609 5616 5621 5624
5605 5599 5592 5586 5581 5577 5573 5572 5571 5571 5572 5574 5574 5576 5576 5581 5588 5591 5597 5602 5606 5609
5600 5594 5588 5582 5578 5575 5572 5569 5568 5567 5566 5566 5566 5568 5570 5573 5578 5581 5586 5592 5593 5596
5597 5590 5585 5581 5575 5572 5569 5567 5565 5563 5561 5560 5559 5561 5562 5565 5569 5572 5577 5578 5580 5583
5594 5589 5584 5579 5574 5570 5567 5564 5562 5560 5558 5556 5555 5555 5556 5559 5561 5563 5566 5570 5571 5572
5588 5585 5581 5578 5574 5570 5566 5561 5558 5555 5554 5553 5552 5551 5551 5551 5552 5553 5555 5557 5559 5561
5583 5579 5576 5573 5569 5566 5563 5560 5557 5554 5552 5549 5547 5546 5547 5546 5543 5543 5544 5545 5546 5547
5576 5574 5571 5568 5564 5561 5558 5555 5553 5550 5548 5546 5544 5542 5541 5539 5538 5538 5538 5536 5537 5538
5568 5566 5563 5561 5558 5555 5552 5550 5547 5545 5543 5541 5538 5536 5534 5533 5532 5532 5532 5531 5531 5531
5560 5556 5553 5551 5549 5546 5544 5541 5538 5535 5533 5532 5530 5528 5526 5524 5523 5522 5521 5520 5519 5518